Location: Vancouver
(49.2500°N, 123.1330°W)
Time: 16:38:50
(UTC-08:00)

A-11 Canister half - Visible Passes

Search period start: 13 December 2017 00:00
Search period end: 23 December 2017 00:00
Orbit: 1528 x 1681 km, 47.3° (Epoch: 13 December)

Date Brightness Start Highest point End Pass type
(mag) Time Alt. Az. Time Alt. Az. Time Alt. Az.
13 Dec 10.3 17:24:04 10° WNW 17:33:24 44° SW 17:42:32 10° SSE visible
13 Dec 11.3 19:31:35 10° W 19:36:22 15° WSW 19:41:06 10° SSW visible
14 Dec 10.3 17:02:24 10° WNW 17:11:50 46° SW 17:21:04 10° SSE visible
14 Dec 11.4 19:09:38 10° W 19:14:53 16° SW 19:20:04 10° SSW visible
15 Dec 10.3 16:40:46 10° WNW 16:50:16 47° SW 16:59:35 10° SE visible
15 Dec 11.4 18:47:43 10° W 18:53:23 17° SW 18:58:59 10° SSW visible
16 Dec 11.4 18:25:51 10° W 18:31:53 18° SW 18:37:51 10° SSW visible
17 Dec 11.4 18:04:01 10° W 18:10:23 19° SW 18:16:41 10° SSW visible
18 Dec 12.3 07:26:16 10° SE 07:28:51 11° ESE 07:31:26 10° ESE visible
18 Dec 11.5 17:42:13 10° W 17:48:53 20° SW 17:55:28 10° S visible
19 Dec 12.3 07:06:18 10° SE 07:07:22 10° ESE 07:08:25 10° ESE visible
19 Dec 11.5 17:20:25 10° W 17:27:22 22° SW 17:34:14 10° S visible
20 Dec 11.5 16:58:39 10° W 17:05:51 23° SW 17:12:59 10° S visible
21 Dec 11.6 16:36:54 10° W 16:44:20 24° SW 16:51:41 10° S visible
